This is the latest recevied weather packets stored in our database for station/object KI4HRG. If no packets are shown the sender has not sent any weather packets the latest 10 day(s).
| Time | Temp. | Humidity | Pressure | Rain* | Wind** | Luminosity | Snow |
|---|---|---|---|---|---|---|---|
| 1777623543 | 13.89° C | 84% | 1013.1 hPa | 0 mm | - | 0 W/m² | - |
| 1777623242 | 13.33° C | 83% | 1013.3 hPa | 0 mm | - | 0 W/m² | - |
| 1777622938 | 13.89° C | 83% | 1013.2 hPa | 0 mm | - | 0 W/m² | - |
| 1777622635 | 13.89° C | 82% | 1012.9 hPa | 0 mm | - | 0 W/m² | - |
| 1777622331 | 13.89° C | 82% | 1013 hPa | 0 mm | - | 0 W/m² | - |
| 1777622028 | 13.89° C | 82% | 1013.1 hPa | 0 mm | - | 0 W/m² | - |
| 1777621722 | 13.89° C | 82% | 1013 hPa | 0 mm | - | 0 W/m² | - |
| 1777621419 | 13.89° C | 80% | 1013 hPa | 0 mm | - | 0 W/m² | - |
| 1777621115 | 13.89° C | 79% | 1013.2 hPa | 0 mm | - | 0 W/m² | - |
| 1777620812 | 13.89° C | 80% | 1013.2 hPa | 0 mm | - | 0 W/m² | - |
| 1777620508 | 13.89° C | 80% | 1013.1 hPa | 0 mm | - | 0 W/m² | - |
| 1777620205 | 14.44° C | 79% | 1013.1 hPa | 0 mm | - | 0 W/m² | - |
| 1777619902 | 14.44° C | 79% | 1013.1 hPa | 0 mm | - | 0 W/m² | - |
| 1777619597 | 14.44° C | 77% | 1013.2 hPa | 0 mm | - | 0 W/m² | - |
| 1777619292 | 15° C | 76% | 1013.3 hPa | 0 mm | - | 0 W/m² | - |
| 1777618987 | 15° C | 75% | 1013.4 hPa | 0 mm | - | 0 W/m² | - |
| 1777618681 | 15° C | 72% | 1013.4 hPa | 0 mm | - | 0 W/m² | - |
| 1777618376 | 15° C | 72% | 1013.4 hPa | 0 mm | - | 0 W/m² | - |
| 1777618074 | 15° C | 73% | 1013.8 hPa | 0 mm | - | 0 W/m² | - |
| 1777617770 | 14.44° C | 72% | 1013.9 hPa | 0 mm | - | 0 W/m² | - |
| 1777617470 | 14.44° C | 73% | 1014 hPa | 0 mm | - | 0 W/m² | - |
| 1777617168 | 14.44° C | 73% | 1013.9 hPa | 0 mm | - | 0 W/m² | - |
| 1777616864 | 15° C | 77% | 1013.8 hPa | 0 mm | - | 0 W/m² | - |
| 1777616559 | 15° C | 73% | 1013.9 hPa | 0 mm | - | 0 W/m² | - |
| 1777616255 | 15° C | 73% | 1013.9 hPa | 0 mm | - | 0 W/m² | - |
* Rain latest hour (hover to see other rain measurements)
** Current wind speed in m/s (hover to see current wind gust speed)